This is the latest recevied weather packets stored in our database for station/object NI4CE-11. If no packets are shown the sender has not sent any weather packets the latest 10 day(s).
| Time | Temp. | Humidity | Pressure | Rain* | Wind** | Luminosity | Snow |
|---|---|---|---|---|---|---|---|
| 1777631711 | 21.11° C | 100% | 1011.9 hPa | 0 mm | - | - | - |
| 1777631411 | 22.22° C | 100% | 1012.1 hPa | 0 mm | - | - | - |
| 1777631111 | 21.67° C | 100% | 1011.9 hPa | 0 mm | - | - | - |
| 1777630812 | 21.67° C | 100% | 1011.9 hPa | 0 mm | - | - | - |
| 1777630593 | 22.22° C | 100% | 1012 hPa | 0 mm | - | - | - |
| 1777630511 | 22.22° C | 100% | 1012 hPa | 0 mm | - | - | - |
| 1777630211 | 22.22° C | 100% | 1012 hPa | 0 mm | - | - | - |
| 1777629912 | 23.89° C | 100% | 1011.9 hPa | 0 mm | - | - | - |
| 1777629611 | 22.78° C | 100% | 1011.8 hPa | 0 mm | - | - | - |
| 1777629437 | 22.78° C | 100% | 1011.9 hPa | 0 mm | - | - | - |
| 1777629312 | 22.22° C | 100% | 1011.9 hPa | 0 mm | - | - | - |
| 1777629012 | 22.78° C | 100% | 1011.9 hPa | 0 mm | - | - | - |
| 1777628712 | 22.78° C | 100% | 1011.9 hPa | 0 mm | - | - | - |
| 1777628412 | 23.33° C | 100% | 1011.9 hPa | 0 mm | - | - | - |
| 1777628112 | 22.22° C | 100% | 1011.9 hPa | 0 mm | - | - | - |
| 1777627956 | 23.33° C | 100% | 1012 hPa | 0 mm | - | - | - |
| 1777627812 | 23.33° C | 100% | 1012 hPa | 0 mm | - | - | - |
| 1777627542 | 21.67° C | 100% | 1011.9 hPa | 0 mm | - | - | - |
| 1777627512 | 22.78° C | 100% | 1012 hPa | 0 mm | - | - | - |
| 1777627212 | 21.67° C | 100% | 1011.9 hPa | 0 mm | - | - | - |
| 1777626912 | 23.33° C | 100% | 1011.8 hPa | 0 mm | - | - | - |
| 1777626621 | 23.89° C | 100% | 1011.4 hPa | 0 mm | - | - | - |
| 1777626612 | 23.33° C | 100% | 1011.8 hPa | 0 mm | - | - | - |
| 1777626312 | 23.33° C | 100% | 1011.9 hPa | 0 mm | - | - | - |
| 1777626012 | 23.33° C | 100% | 1011.9 hPa | 0 mm | - | - | - |
* Rain latest hour (hover to see other rain measurements)
** Current wind speed in m/s (hover to see current wind gust speed)